When you browse on this site, cookies collect data to enhance your experience and personalize the content and advertising you see.
Visit our Privacy Policy to learn more. By continuing to use the site, you agree to this use of cookies and data.
  • In Czech Republic
  • List of Countries
  • For 7 days
  • Water Temperature
  • Weather Map
  • Weather Widgets
  • user-avatar
    Login

    Hourly Weather Laval

    Today, 4 June, Thursday

    Time Temperature Precipitation Wind Pressure Humidity
    00:00 +13°C° 0.3 mm 3 mps 741 mmHg 91%
    01:00 +12°C° 0.1 mm 4 mps 741 mmHg 92%
    02:00 +12°C° 0.1 mm 4 mps 741 mmHg 93%
    03:00 +11°C° 0.1 mm 4 mps 741 mmHg 94%
    04:00 +11°C° 0.1 mm 4 mps 741 mmHg 93%
    05:00 +11°C° 0.1 mm 4 mps 741 mmHg 92%
    06:00 +10°C° 0.1 mm 5 mps 741 mmHg 91%
    07:00 +12°C° 0.1 mm 5 mps 741 mmHg 88%
    08:00 +13°C° 0.1 mm 5 mps 742 mmHg 86%
    09:00 +13°C° 0.1 mm 5 mps 742 mmHg 83%
    10:00 +14°C° 0.2 mm 5 mps 742 mmHg 80%
    11:00 +15°C° 0.2 mm 5 mps 742 mmHg 76%
    12:00 +16°C° 0.2 mm 5 mps 743 mmHg 73%
    13:00 +15°C° 0.2 mm 6 mps 743 mmHg 70%
    14:00 +15°C° 0.2 mm 6 mps 742 mmHg 67%
    15:00 +15°C° 0.2 mm 7 mps 742 mmHg 63%
    16:00 +14°C° 0 mm 7 mps 743 mmHg 65%
    17:00 +14°C° 0 mm 6 mps 743 mmHg 67%
    18:00 +13°C° 0 mm 6 mps 743 mmHg 68%
    19:00 +12°C° 0 mm 5 mps 743 mmHg 74%
    20:00 +11°C° 0 mm 4 mps 744 mmHg 79%
    21:00 +10°C° 0 mm 4 mps 744 mmHg 84%
    22:00 +9°C° 0 mm 3 mps 744 mmHg 86%
    23:00 +9°C° 0 mm 3 mps 744 mmHg 88%

    Tomorrow, 5 June, Friday

    Time Temperature Precipitation Wind Pressure Humidity
    00:00 +8°C° 0 mm 3 mps 744 mmHg 90%
    01:00 +8°C° 0.1 mm 4 mps 744 mmHg 90%
    02:00 +8°C° 0.1 mm 5 mps 743 mmHg 91%
    03:00 +9°C° 0.1 mm 5 mps 743 mmHg 91%
    04:00 +10°C° 0.1 mm 6 mps 743 mmHg 90%
    05:00 +11°C° 0.1 mm 6 mps 742 mmHg 89%
    06:00 +12°C° 0.1 mm 7 mps 742 mmHg 89%
    07:00 +12°C° 0.1 mm 7 mps 742 mmHg 87%
    08:00 +14°C° 0.1 mm 7 mps 742 mmHg 85%
    09:00 +14°C° 0.1 mm 7 mps 742 mmHg 83%
    10:00 +15°C° 0.1 mm 6 mps 742 mmHg 83%
    11:00 +15°C° 0.1 mm 6 mps 742 mmHg 83%
    12:00 +15°C° 0.1 mm 5 mps 742 mmHg 83%
    13:00 +15°C° 0.1 mm 5 mps 742 mmHg 83%
    14:00 +15°C° 0.1 mm 5 mps 742 mmHg 83%
    15:00 +15°C° 0.1 mm 5 mps 742 mmHg 83%
    16:00 +15°C° 0.1 mm 5 mps 742 mmHg 85%
    17:00 +14°C° 0.1 mm 5 mps 742 mmHg 86%
    18:00 +14°C° 0.1 mm 5 mps 741 mmHg 87%
    19:00 +13°C° 0.1 mm 5 mps 742 mmHg 88%
    20:00 +13°C° 0.1 mm 5 mps 742 mmHg 89%
    21:00 +12°C° 0.1 mm 5 mps 743 mmHg 90%
    22:00 +12°C° 0.1 mm 4 mps 743 mmHg 91%
    23:00 +11°C° 0.1 mm 4 mps 743 mmHg 92%

    Day after tomorrow, 6 June, Saturday

    Time Temperature Precipitation Wind Pressure Humidity
    00:00 +11°C° 0.1 mm 4 mps 743 mmHg 93%
    01:00 +10°C° 0.1 mm 3 mps 743 mmHg 94%
    02:00 +10°C° 0.1 mm 3 mps 743 mmHg 95%
    03:00 +9°C° 0.1 mm 3 mps 743 mmHg 96%
    04:00 +10°C° 0 mm 3 mps 743 mmHg 94%
    05:00 +10°C° 0 mm 4 mps 744 mmHg 93%
    06:00 +10°C° 0 mm 4 mps 744 mmHg 91%
    07:00 +11°C° 0.1 mm 4 mps 744 mmHg 83%
    08:00 +13°C° 0.1 mm 5 mps 744 mmHg 74%
    09:00 +14°C° 0.1 mm 5 mps 745 mmHg 65%
    10:00 +14°C° 0.1 mm 5 mps 745 mmHg 64%
    11:00 +14°C° 0.1 mm 5 mps 745 mmHg 63%
    12:00 +14°C° 0.1 mm 5 mps 745 mmHg 62%
    13:00 +14°C° 0.1 mm 6 mps 745 mmHg 62%
    14:00 +14°C° 0.1 mm 6 mps 745 mmHg 61%
    15:00 +14°C° 0.1 mm 6 mps 745 mmHg 60%
    16:00 +14°C° 0 mm 6 mps 745 mmHg 61%
    17:00 +13°C° 0 mm 5 mps 745 mmHg 62%
    18:00 +12°C° 0 mm 5 mps 745 mmHg 63%
    19:00 +11°C° 0 mm 4 mps 746 mmHg 70%
    20:00 +8°C° 0 mm 4 mps 746 mmHg 77%
    21:00 +7°C° 0 mm 3 mps 746 mmHg 83%
    22:00 +7°C° 0 mm 3 mps 746 mmHg 85%
    23:00 +5°C° 0 mm 3 mps 746 mmHg 87%

    7 June, Sunday

    Time Temperature Precipitation Wind Pressure Humidity
    00:00 +5°C° 0 mm 3 mps 746 mmHg 88%
    01:00 +5°C° 0 mm 3 mps 747 mmHg 90%
    02:00 +5°C° 0 mm 3 mps 747 mmHg 91%
    03:00 +4°C° 0 mm 3 mps 747 mmHg 92%
    04:00 +5°C° 0 mm 3 mps 747 mmHg 89%
    05:00 +7°C° 0 mm 4 mps 747 mmHg 86%
    06:00 +8°C° 0 mm 4 mps 747 mmHg 83%
    07:00 +11°C° 0 mm 4 mps 747 mmHg 78%
    08:00 +13°C° 0 mm 4 mps 748 mmHg 73%
    09:00 +15°C° 0 mm 4 mps 748 mmHg 68%
    10:00 +15°C° 0.3 mm 4 mps 748 mmHg 69%
    11:00 +15°C° 0.3 mm 4 mps 748 mmHg 69%
    12:00 +16°C° 0.3 mm 5 mps 749 mmHg 70%
    13:00 +17°C° 0.3 mm 4 mps 749 mmHg 70%
    14:00 +17°C° 0.3 mm 4 mps 749 mmHg 70%
    15:00 +17°C° 0.3 mm 4 mps 749 mmHg 70%
    16:00 +16°C° 0.2 mm 3 mps 749 mmHg 73%
    17:00 +16°C° 0.2 mm 3 mps 749 mmHg 77%
    18:00 +15°C° 0.2 mm 2 mps 749 mmHg 80%
    19:00 +14°C° 0.1 mm 2 mps 749 mmHg 84%
    20:00 +13°C° 0.1 mm 2 mps 749 mmHg 87%
    21:00 +11°C° 0.1 mm 1 mps 750 mmHg 91%
    22:00 +11°C° 0 mm 1 mps 750 mmHg 92%
    23:00 +10°C° 0 mm 1 mps 750 mmHg 92%

    8 June, Monday

    Time Temperature Precipitation Wind Pressure Humidity
    00:00 +9°C° 0 mm 1 mps 750 mmHg 93%
    01:00 +9°C° 0 mm 1 mps 750 mmHg 93%
    02:00 +9°C° 0 mm 1 mps 750 mmHg 94%
    03:00 +7°C° 0 mm 0 mps 750 mmHg 95%
    04:00 +8°C° 0 mm 0 mps 750 mmHg 94%
    05:00 +9°C° 0 mm 0 mps 750 mmHg 93%
    06:00 +10°C° 0 mm 0 mps 751 mmHg 92%
    07:00 +12°C° 0 mm 0 mps 751 mmHg 86%
    08:00 +14°C° 0 mm 0 mps 751 mmHg 79%
    09:00 +16°C° 0 mm 0 mps 752 mmHg 73%
    10:00 +17°C° 0.3 mm 0 mps 752 mmHg 70%
    11:00 +18°C° 0.3 mm 0 mps 752 mmHg 67%
    12:00 +21°C° 0.3 mm 1 mps 752 mmHg 64%
    13:00 +21°C° 0.5 mm 1 mps 752 mmHg 66%
    14:00 +20°C° 0.5 mm 2 mps 752 mmHg 68%
    15:00 +19°C° 0.5 mm 3 mps 752 mmHg 70%
    16:00 +19°C° 0.5 mm 4 mps 752 mmHg 73%
    17:00 +18°C° 0.5 mm 4 mps 752 mmHg 75%
    18:00 +18°C° 0.5 mm 4 mps 752 mmHg 78%
    19:00 +15°C° 0.1 mm 4 mps 753 mmHg 83%
    20:00 +13°C° 0.1 mm 4 mps 753 mmHg 88%
    21:00 +11°C° 0.1 mm 3 mps 754 mmHg 93%
    22:00 +11°C° 0 mm 3 mps 754 mmHg 94%
    23:00 +10°C° 0 mm 3 mps 754 mmHg 94%

    9 June, Tuesday

    Time Temperature Precipitation Wind Pressure Humidity
    00:00 +10°C° 0 mm 3 mps 755 mmHg 95%
    01:00 +9°C° 0 mm 3 mps 755 mmHg 95%
    02:00 +9°C° 0 mm 3 mps 755 mmHg 95%
    03:00 +8°C° 0 mm 3 mps 755 mmHg 95%
    04:00 +9°C° 0 mm 3 mps 755 mmHg 92%
    05:00 +10°C° 0 mm 4 mps 756 mmHg 89%
    06:00 +10°C° 0 mm 4 mps 756 mmHg 86%
    07:00 +12°C° 0 mm 4 mps 756 mmHg 79%
    08:00 +14°C° 0 mm 4 mps 756 mmHg 71%
    09:00 +15°C° 0 mm 4 mps 756 mmHg 64%
    10:00 +17°C° 0 mm 4 mps 756 mmHg 62%
    11:00 +18°C° 0 mm 4 mps 756 mmHg 59%
    12:00 +19°C° 0 mm 4 mps 756 mmHg 56%
    13:00 +19°C° 0 mm 4 mps 756 mmHg 56%
    14:00 +19°C° 0 mm 4 mps 756 mmHg 57%
    15:00 +19°C° 0 mm 4 mps 756 mmHg 57%
    16:00 +18°C° 0 mm 3 mps 756 mmHg 60%
    17:00 +18°C° 0 mm 3 mps 756 mmHg 63%
    18:00 +17°C° 0 mm 3 mps 756 mmHg 66%
    19:00 +14°C° 0 mm 3 mps 756 mmHg 70%
    20:00 +14°C° 0 mm 2 mps 756 mmHg 74%
    21:00 +12°C° 0 mm 2 mps 756 mmHg 78%
    22:00 +10°C° 0 mm 2 mps 756 mmHg 78%
    23:00 +10°C° 0 mm 1 mps 756 mmHg 77%
    Show more